Regional Weather Roundup
Issued by NWS Wakefield, VA

Home | Current Version | Previous Version | Graphics & Text | Print | Product List | Glossary On
Versions: 1 2 3 4 5 6 7 8 9 10 11 12 13 14 15 16 17 18 19 20 21 22 23 24 25 26 27 28 29 30 31 32 33 34 35 36 37 38 39 40 41 42 43 44 45 46 47 48 49 50
000
ASUS41 KAKQ 010115
RWRAKQ

REGIONAL WEATHER ROUNDUP
NATIONAL WEATHER SERVICE WAKEFIELD VA
900 PM EDT TUE JUN 30 2015

Note: "fair" indicates few or no clouds below 12,000 feet with no
significant weather and/or obstructions to visibility. * = Denotes
station may not report precipitation (e.g., rain,snow,etc.),
thunder or fog.

VAZ042-051-052>054-056-010200-
NORTHERN VIRGINIA

CITY           SKY/WX    TMP DP  RH WIND       PRES   REMARKS
WASH NATIONAL  MOCLDY    81  69  67 S9        29.81S
DULLES         CLOUDY    78  66  66 S7        29.81S
FORT BELVOIR   FAIR      78  69  72 S3        29.81S
QUANTICO       FAIR      81  68  64 SW3       29.82S
FREDERICKSBRG* NOT AVBL
STAFFORD*      NOT AVBL
WARRENTON      NOT AVBL
CULPEPER*      NOT AVBL
MANASSAS*      CLEAR     75  70  83 CALM        N/A
LEESBURG*      NOT AVBL
WINCHESTER     NOT AVBL
FRONT ROYAL*   NOT AVBL
LURAY*         NOT AVBL
$$

VAZ048-049-060>072-079>083-010200-
CENTRAL AND SOUTH CENTRAL VIRGINIA

CITY           SKY/WX    TMP DP  RH WIND       PRES   REMARKS
RICHMOND       CLOUDY    80  71  74 S5        29.84R
CHESTERFIELD*  FAIR      79  63  57 S6        29.85R
PETERSBURG*    NOT AVBL
HANOVER        FAIR      78  69  73 VRB3      29.85R
TAPPAHANNOCK*  NOT AVBL
QUINTON*       NOT AVBL
CHARLOTTSVILLE FAIR      76  67  73 CALM      29.83R
GORDONSVILLE*  NOT AVBL
ORANGE*        NOT AVBL
LOUISA*        NOT AVBL
BUMPASS*       NOT AVBL
FARMVILLE*     NOT AVBL
CREWE*         NOT AVBL
FORT PICKETT*  NOT AVBL
CHASE CITY*    NOT AVBL
CLARKSVILLE*   NOT AVBL
SOUTH HILL*    NOT AVBL
LAWRENCEVILLE* NOT AVBL
EMPORIA*       NOT AVBL
$$

VAZ088>098-010200-
SOUTHEAST VIRGINIA

CITY           SKY/WX    TMP DP  RH WIND       PRES   REMARKS
NORFOLK        FAIR      84  66  54 S15G24    29.87R
VIRGINIA BEACH MOCLDY    87  67  51 S17G24    29.87R
NORFOLK NAVAL  MOCLDY    84  68  58 S10G20    29.88R
WEST POINT*    NOT AVBL
SALUDA*        NOT AVBL
NEWPORT NEWS   FAIR      84  69  60 S14       29.86R
LANGLEY AFB    FAIR      85  69  58 S14       29.85R
FORT EUSTIS    FAIR      83  69  62 S10       29.84R
WILLIAMSBURG*  NOT AVBL
HR EXEC AP*    FAIR      81  64  57 S13G23    29.91R
FRANKLIN*      NOT AVBL
WAKEFIELD      FAIR      82  69  64 VRB7      29.85R
$$

VAZ020-022-025-037-045-010200-
WEST CENTRAL AND SOUTHWEST VIRGINIA

CITY           SKY/WX    TMP DP  RH WIND       PRES   REMARKS
STAUNTON*      NOT AVBL
WAYNESBORO*    NOT AVBL
HOT SPRINGS VA NOT AVBL
LYNCHBURG      MOCLDY    75  69  81 CALM      29.87R
DANVILLE       FAIR      71  66  84 CALM      29.87R
SOUTH BOSTON*  NOT AVBL
MARTINSVILLE   NOT AVBL
ROANOKE        MOCLDY    75  63  66 W6        29.88S
BLACKSBURG     NOT AVBL
DUBLIN*        NOT AVBL
MARION*        NOT AVBL
HILLSVILLE*    NOT AVBL
RICHLANDS*     NOT AVBL
WISE*          NOT AVBL
ABINGDON*      NOT AVBL
$$

MDZ021>025-VAZ099-100-010200-
SOUTHERN MARYLAND AND THE DELMARVA PENINSULA

CITY           SKY/WX    TMP DP  RH WIND       PRES   REMARKS
PATUXENT RIVER MOCLDY    78  69  73 S6        29.83R
BAY BRIDGE APT   N/A     77  70  78 S8        29.81S
LEONARDTOWN    PTCLDY    77  68  73 CALM      29.85R
DOVER          PTCLDY    76  70  81 S8        29.81S
GEORGETOWN     PTCLDY    74  72  93 S7        29.84F
EASTON         MOCLDY    77  68  73 S7        29.86F
CAMBRIDGE      MOCLDY    73  68  83 SE3       29.83R
SALISBURY      PTCLDY    77  70  79 S7        29.84F
OCEAN CITY     PTCLDY    76  73  91 SW10      29.86S
WALLOPS ISLAND FAIR      78  75  90 S13       29.86F
ACCOMACK*      NOT AVBL
$$

NCZ012>017-030>032-010200-
NORTH CENTRAL AND EASTERN NORTH CAROLINA

CITY           SKY/WX    TMP DP  RH WIND       PRES   REMARKS
ROANOKE RAPIDS NOT AVBL
RALEIGH        MOCLDY    74  71  91 CALM      29.90F
ELIZABETH CITY FAIR      77  62  59 W9        29.92R
AHOSKIE*       NOT AVBL
EDENTON*       NOT AVBL
CURRITUCK*     NOT AVBL
KILL DEVIL HLS NOT AVBL
MANTEO         NOT AVBL
CAPE HATTERAS  FAIR      80  73  79 SW15G24   29.94R
TARBORO*       NOT AVBL
GOLDSBORO      FAIR      83  69  62 S12G22    29.89R
WASHINGTON     NOT AVBL
GREENVILLE     NOT AVBL
NEW BERN       FAIR      80  69  69 S10G21    29.94R
WILMINGTON     FAIR      81  70  69 SW17G23   29.95S
$$

VAZ048-010200-
ELSEWHERE

CITY           SKY/WX    TMP DP  RH WIND       PRES   REMARKS
HARRISBURG PA  MOCLDY    73  69  87 S3        29.79R
BALTIMORE      MOCLDY    77  69  76 S6        29.80F
ANNAPOLIS      MOCLDY    78  71  79 S10       29.81S
ANDREWS AFB    FAIR      76  72  88 SE8       29.82S
PHILADELPHIA   TSTM      76  70  82 E6        29.84S
GREENSBORO     MOCLDY    74  66  76 SE6       29.86F
ROCKY MOUNT    FAIR      85  68  56 S13G21    29.88R
$$

VAZ100-010200-
MARINE

STATION/POSITION TIME  TEMP    WIND        PRES    WAVE   SWELL
                       AIR SEA DIR/SP/G            HT/PER HT/PER
                 (UTC) (F)     (DEG/KT/KT) (MB)    (FT/S) (FT/S)
BRANDYWINE LGT   0000   73 72  180/ 19/ 22 1010.7F
CAPE MAY NJ      0000   74 79  150/ 11/ 15 1010.4F
LEWES DE         0000   76 73  150/  8/ 10 1010.5F
15NM E FENWICK I 0050   75 73              1010.6F   4/ 8
OCEAN-CITY-INLET 0000   74 73  210/ 11/ 12 1010.7F
WACHAPREAGUE VA  0000   80 82  200/ 15/ 19 1010.7R
THOMAS POINT MD  0100   77 77              1010.1
GOOSES REEF MD   0100   78 78  170/ 10/ 14 1010.9R
COVE POINT MD    0000   78     160/ 11/ 13 1010.6R
SOLOMONS ISLAND  0000      80                N/A
BISHOPS HEAD MD  0000   81     190/ 14/ 17 1010.0F
PINEY POINT MD   0000          200/  9/  9   N/A
CAMBRIDGE MD     0000   76 79  140/  3/  6 1009.8S
LEWISETTA VA     0000   81 82  200/  7/  8 1009.9R
RAPPAHANNOCK LGT 0000          150/ 10/ 12 1010.7S
STINGRAY PT      0100   82 80  200/  6/  8 1010.6R   1/ 3
YORK RVR RNG VA  0000   85     200/ 13/ 15 1009.6R
YORKTOWN VA      0000   85 81  200/  5/  9 1009.8S
JAMESTOWN VA     0100   84 83  180/  8/ 10   N/A
DOMINION TERM VA 0000   85     190/ 13/ 17 1009.9F
KIPTOPEKE VA     0000      85  170/ 14/ 16   N/A
CHES BAY BRIDGE  0000   85 74  170/ 12/ 18 1010.0F
CHESAPEAKE LGHT  0000   80     180/ 19/ 20 1011.3S
WILLOUBY STN VA  0000   86     180/ 15/ 18 1011.1F
CAPE HENRY BUOY  0028      78                N/A     3/ 5
1ST LANDING BUOY 0100      77              1011.1R   1/ 4
CAPE CHARLES BUO 0026      78                N/A     3/ 8   2/ 8
OFFSHORE WE BUOY 0011      78                N/A     4/ 4   2/ 7
64NM E OF VA BCH 0050   78 76  190/ 17/ 19 1012.0R   4/ 7   2/ 8
DUCK PIER NC     0000   84 71  190/ 15/ 21 1010.9R
44100 DUCK FRF   0024      77                N/A     3/ 8
44056 DUCK FRF   0011      76                N/A     2/ 8
OREGON INLET NC  0000   83 84  190/ 23/ 26 1012.7R
HATTERAS NC      0000   81 83  210/ 14/ 21 1013.2F
DIAMOND SHLS NC  0050   82 82  210/ 23/ 27 1013.4S   4/ 4   2/ 7
CAPE LOOKOUT NC  0100   81     210/ 16/ 21 1014.1R
$$



USA.gov is the U.S. government's official web portal to all federal, state and local government web resources and services.